Content
SEND FEEDBACK

Daily
Averages
Monthly
Summary
Mexico

CANCUN, QUINTANA ROO


Home > North America > Mexico > Quintana Roo
Elevation: 30 feet     Latitude: 21 09N     Longitude: 086 49W

WEATHER
 
SELECT A DAY
Number of Records: 166,347;   Date Range: 1/1/95 - 10/20/14
 
SHARE

PRINT THIS DATA

[ ← Previous Day ]
WEATHER ALMANAC - SEPTEMBER 2, 2014
[ Next Day → ]
[ °C ]   °F
Weather ElementAverageHighLow
Temperature84.4 °F89.6 °F (12:46 pm)80.6 °F (3:48 am)
Dewpoint76.6 °F77 °F (9:47 pm)73.4 °F (12:45 am)
Humidity78 %89 % (1:44 am)62 % (11:40 am)
Barometer29.95 in30.02 in (10:41 am)29.90 in (8:43 pm)
Wind Speed6.3 mph11.5 mph (6:40 pm)
Weather ElementAverage
Visibility7 mi
Wind DirectionE (90.4 °)

Weather ElementTotal
Precipitation---
Cooling Degree Days20.1 (Base 65)
Growing Degree Days35.1 (Base 50)
Averaged from 24 records on September 2, 2014
WEATHER CONDITIONS BREAKOUT
WIND DIRECTION BREAKOUT
WEATHER BY HOUR - SEPTEMBER 2, 2014
[ °C ]   °F
Local TimeTemperatureDewpointHumidityBarometerVisibilityWind DirectionWind SpeedGust SpeedPrecipitationEventsConditions
12:43 AM82.4 °F77.0 °F84 %29.98 in7.0 miESE (110°)6.9 mphScattered Clouds
1:40 AM82.4 °F77.0 °F84 %29.98 in7.0 miESE (110°)5.8 mphMostly Cloudy
2:42 AM82.4 °F77.0 °F84 %29.97 in7.0 miEast (90°)5.8 mphScattered Clouds
3:45 AM80.6 °F77.0 °F89 %29.94 in7.0 miEast (100°)4.6 mphScattered Clouds
4:44 AM80.6 °F77.0 °F89 %29.95 in7.0 miEast (80°)3.5 mphScattered Clouds
5:42 AM80.6 °F77.0 °F89 %29.95 in7.0 miEast (90°)3.5 mphScattered Clouds
6:44 AM80.6 °F77.0 °F89 %29.93 in7.0 miEast (90°)4.6 mphScattered Clouds
7:40 AM84.2 °F77.0 °F79 %29.97 in7.0 miEast (90°)5.8 mphScattered Clouds
8:42 AM86.0 °F77.0 °F74 %29.99 in7.0 miEast (80°)5.8 mphScattered Clouds
9:48 AM87.8 °F77.0 °F70 %29.99 in7.0 miEast (90°)9.2 mphScattered Clouds
10:40 AM87.8 °F75.2 °F66 %30.02 in7.0 miEast (80°)9.2 mphMostly Cloudy
11:42 AM87.8 °F77.0 °F70 %30.01 in7.0 miEast (90°)8.1 mphMostly Cloudy
12:41 PM89.6 °F77.0 °F66 %29.97 in7.0 miESE (120°)11.5 mphMostly Cloudy
1:43 PM89.6 °F75.2 °F62 %29.97 in7.0 miSE (130°)11.5 mphMostly Cloudy
2:47 PM87.8 °F75.2 °F66 %29.95 in7.0 miEast (90°)9.2 mphMostly Cloudy
3:46 PM87.8 °F73.4 °F62 %29.92 in7.0 miEast (80°)9.2 mphMostly Cloudy
4:41 PM87.8 °F77.0 °F70 %29.91 in7.0 miENE (60°)6.9 mphScattered Clouds
5:50 PM86.0 °F77.0 °F74 %29.91 in7.0 miESE (110°)8.1 mphScattered Clouds
6:42 PM84.2 °F77.0 °F79 %29.90 in7.0 miEast (90°)5.8 mphPartly Cloudy
7:42 PM82.4 °F77.0 °F84 %29.92 in7.0 miEast (90°)4.6 mphPartly Cloudy
8:42 PM82.4 °F77.0 °F84 %29.92 in7.0 miENE (60°)3.5 mphPartly Cloudy
9:48 PM82.4 °F77.0 °F84 %29.91 in7.0 miEast (90°)4.6 mphPartly Cloudy
10:45 PM82.4 °F77.0 °F84 %29.96 in7.0 miEast (80°)2.3 mphScattered Clouds
11:47 PM80.6 °F77.0 °F89 %29.94 in7.0 miENE (70°)2.3 mphPartly Cloudy
Hourly data recorded from MMUN, located miles away from Cancun, Quintana Roo







STORIES FROM OUR PARTNERS